TimeCST,TemperatureF,Dew PointF,Humidity,Sea Level PressureIn,VisibilityMPH,Wind Direction,Wind SpeedMPH,Gust SpeedMPH,PrecipitationIn,Events,Conditions,WindDirDegrees,DateUTC
12:10 AM,48.2,41.0,76,30.29,9.0,North,11.5,-,0.00,Rain,Light Rain,350,2013-01-04 06:10:00
12:53 AM,48.9,39.9,71,30.30,10.0,NW,13.8,-,0.00,,Overcast,310,2013-01-04 06:53:00
1:53 AM,48.0,41.0,77,30.30,7.0,NNW,13.8,-,0.00,Rain,Light Rain,330,2013-01-04 07:53:00
2:50 AM,48.2,39.2,71,30.30,9.0,NW,12.7,-,0.00,,Overcast,320,2013-01-04 08:50:00
2:53 AM,48.9,39.9,71,30.30,9.0,NW,13.8,-,0.00,,Overcast,320,2013-01-04 08:53:00
3:53 AM,48.9,39.9,71,30.30,9.0,NNW,15.0,-,N/A,,Overcast,330,2013-01-04 09:53:00
4:25 AM,48.2,39.2,71,30.30,9.0,NNW,19.6,-,N/A,,Overcast,340,2013-01-04 10:25:00
4:53 AM,48.0,39.0,71,30.31,9.0,NNW,20.7,27.6,N/A,,Overcast,340,2013-01-04 10:53:00
6:53 AM,48.9,37.0,64,30.34,9.0,NNW,18.4,-,N/A,,Overcast,330,2013-01-04 12:53:00
7:53 AM,48.0,37.9,68,30.35,8.0,NW,18.4,-,N/A,,Overcast,320,2013-01-04 13:53:00
8:53 AM,48.0,41.0,77,30.37,6.0,NW,18.4,-,N/A,,Haze,320,2013-01-04 14:53:00
9:01 AM,48.2,42.8,82,30.37,6.0,NW,19.6,-,N/A,,Haze,320,2013-01-04 15:01:00
9:53 AM,46.9,43.0,86,30.38,5.0,NW,17.3,-,N/A,,Overcast,310,2013-01-04 15:53:00
10:53 AM,48.0,45.0,89,30.37,4.0,NW,17.3,-,0.00,,Overcast,320,2013-01-04 16:53:00
11:40 AM,48.2,44.6,87,30.37,2.5,NW,17.3,-,0.00,Rain,Light Rain,310,2013-01-04 17:40:00
11:53 AM,48.0,45.0,89,30.36,2.0,NW,19.6,-,0.00,Rain,Light Rain,310,2013-01-04 17:53:00
12:53 PM,48.9,46.0,90,30.32,4.0,NW,20.7,-,0.00,Rain,Light Rain,320,2013-01-04 18:53:00
1:53 PM,48.9,46.9,93,30.30,3.0,NW,18.4,-,0.00,Rain,Light Rain,320,2013-01-04 19:53:00
2:01 PM,48.2,46.4,93,30.29,2.5,NW,18.4,-,0.00,Rain,Light Rain,320,2013-01-04 20:01:00
2:53 PM,48.0,46.0,93,30.27,2.5,NW,19.6,-,0.00,Rain,Light Rain,320,2013-01-04 20:53:00
3:31 PM,48.2,46.4,93,30.28,3.0,NNW,21.9,-,0.01,Rain,Light Rain,330,2013-01-04 21:31:00
3:53 PM,48.0,46.0,93,30.28,3.0,NW,19.6,-,0.01,Rain,Light Rain,320,2013-01-04 21:53:00
4:22 PM,48.2,46.4,93,30.29,2.5,NW,23.0,29.9,0.00,,Overcast,320,2013-01-04 22:22:00
5:26 PM,48.2,46.4,93,30.28,3.0,NNW,20.7,27.6,0.00,Rain,Light Rain,330,2013-01-04 23:26:00
5:53 PM,48.0,45.0,89,30.28,4.0,NNW,18.4,-,0.00,,Overcast,330,2013-01-04 23:53:00
6:53 PM,48.0,45.0,89,30.29,4.0,NNW,20.7,29.9,N/A,,Overcast,330,2013-01-05 00:53:00
7:53 PM,46.9,45.0,93,30.30,3.0,NNW,19.6,-,0.01,,Overcast,330,2013-01-05 01:53:00
8:53 PM,46.9,45.0,93,30.30,5.0,NNW,19.6,-,0.01,Rain,Light Rain,330,2013-01-05 02:53:00
9:53 PM,46.9,45.0,93,30.30,4.0,NNW,17.3,-,0.00,,Overcast,330,2013-01-05 03:53:00
10:53 PM,46.9,45.0,93,30.29,4.0,NNW,19.6,-,0.01,,Overcast,330,2013-01-05 04:53:00
11:53 PM,46.9,45.0,93,30.29,3.0,NNW,18.4,26.5,0.01,,Overcast,340,2013-01-05 05:53:00